Location: Poughquag
(41.6090°N, 73.6820°W)
Time: 03:08:58
(UTC-04:00)

Transit 2A - Pass Details

Date: 31 May 2020
Orbit: 592 x 967 km, 66.7° (Epoch: 06 July)

Event Time Altitude Azimuth Distance (km) Brightness Sun altitude
Rises 21:42:00 0° 336° (NNW) 3,526 10.9 -12.5°
Reaches altitude 10° 21:44:46 10° 346° (NNW) 2,627 9.7 -12.9°
Maximum altitude 21:50:16 32° 48° (NE) 1,576 7.6 -13.6°
Enters shadow 21:54:57 14° 105° (ESE) 2,417 8.1 -14.2°
Drops below altitude 10° 21:55:54 10° 111° (ESE) 2,702 - -14.3°
Sets 21:58:46 0° 120° (ESE) 3,641 - -14.7°
